Das Wetter in  D-61279 Heinzenberg / Taunus





Wetter Minimum- & Maximum-Werte im Mrz 2010

Standort: Heinzenberg / Taunus - Höhe 297 m         8 24' 1" Ost 50 21' 51" Nord
(   3-stündige Aktualisierung    letzte Aktualisierung um 19:04 am 31.03.2010  )


Messgrösse

Minimum

Maximum

Durchschnitt

Temperatur West /
Luftfeuchte West
Anklicken für Monats-Diagramm

-12,8 C

06:13
08.03.2010

32 %

16:44
09.03.2010

20,4 C

15:45
25.03.2010

99 %

18:46
21.03.2010

Temp

4,6 C

Feuchte

77 %

Temperatur Ost /
Luftfeuchte Ost
Anklicken für Monats-Diagramm

-13,0 C

07:53
08.03.2010

--

--
--

20,8 C

15:45
25.03.2010

--

--
--

4,6 C

--

Luftdruck Anklicken für Monats-Diagramm

993,2 hPa

15:00
30.03.2010

1034,3 hPa

09:32
07.03.2010

1017,9 hPa

Taupunkt

-15,1 C

06:13
08.03.2010

11,8 C

13:19
20.03.2010

0,6 C

Windchill
( gefühlte Temperatur )

-17,1 C

23:30
05.03.2010

20,2 C

15:50
25.03.2010

0,9 C

Windgeschwindigkeit /
Windrichtung
Anklicken für Monats-Diagramm

---

70,8 km/h / W-SW

13:36
26.03.2010

11,1 km/h
W-SW

Helligkeit /
Sonnenschein
Anklicken für Monats-Diagramm
Anklicken für Monats-Diagramm

Sonnenschein:

132:06 Stunden

Max: 10:00 Std am
09.03.2010

106,0 klux

12:26
31.03.2010

26 klux

Solarstrahlung Anklicken für Monats-Diagramm

---

725 W/m

12:26
31.03.2010

189 W/m

Regenmenge
    Mrz 2010
Anklicken für Monats-Diagramm

Insgesamt 49,6 l/m

in 72:48 Stunden
an 19 Tagen

19,5 l/m

02:06
21.03.2010

Gesamtmenge

49,6 l/m

Regen-Tage
    Mrz 2010
Anklicken für Monats-Diagramm

>   0 mm/Tag

>   2 mm/Tag

>   5 mm/Tag

> 10 mm/Tag

> 20 mm/Tag

19 Tage     
6 Tage     
4 Tage     
  1 Tag     
0 Tage     

Eisige Tage Mrz 2010 / 2009

Tmin ≤ -10C     

  1 Tag

/

0 Tage

Eistage Mrz 2010 / 2009

Tmax <     0C     

  1 Tag

/

0 Tage

Frosttage Mrz 2010 / 2009

Tmin ≤     0C     

13 Tage

/

10 Tage

Kalte Tage Mrz 2010 / 2009

Tmax <   10C     

16 Tage

/

20 Tage

Warme Tage Mrz 2010 / 2009

Tmax ≥   20C     

  1 Tag

/

0 Tage

Sommertage Mrz 2010 / 2009

Tmax ≥   25C     

0 Tage

/

0 Tage

Heisse Tage Mrz 2010 / 2009

Tmax ≥   30C     

0 Tage

/

0 Tage


Monatsdiagramm Mrz 2010

Die Kurven zeigen den Durchschnittswert des jeweiligen Tages an


Wetter-Monatsübersicht Mrz 2010
Datum
  Temperatur
   Luftdruck
   Wind
  Regen
   Luftfeuchte
   Helligkeit

Sonnen-
schein


Temp.

Min.
Temp.

Max.
Temp.


Luftdruck

Min.
Luftdruck

Max.
Luftdruck

-Geschw.
Haupt-Richtg.

Max.
Wind

Menge /
Dauer


Feuchte

Min.
Feuchte

Max.
Feuchte


Helligkeit

Max.
Helligkeit

1.
Mrz
3,8 C-1,2 C
23:47
6,8 C
12:56
1009,2 hPa998,7 hPa
00:01
1017,3 hPa
23:47
21,9 km/h
W
47,5 km/h
02:01  
---
1:45 Stunden
75 %62 %
13:16
92 %
06:31
15,0 klux88,5 klux
13:11
55 Min 
2.
Mrz
1,1 C-3,2 C
07:17
7,9 C
16:37
1021,6 hPa1017,3 hPa
00:02
1026,6 hPa
23:38
5,5 km/h
NW
27,1 km/h
16:12  
0,5 l/m
50 Minuten
80 %48 %
16:42
94 %
07:57
30,8 klux63,9 klux
12:12
6:35 Std 
3.
Mrz
1,2 C-3,2 C
05:28
8,4 C
16:48
1023,0 hPa1018,8 hPa
18:48
1026,9 hPa
05:48
3,9 km/h
NO
23,0 km/h
15:03  
---
76 %42 %
16:58
98 %
06:18
37,5 klux73,6 klux
10:53
8:55 Std 
4.
Mrz
0,3 C-3,5 C
23:35
5,4 C
15:04
1019,4 hPa1017,4 hPa
03:59
1023,8 hPa
23:35
5,9 km/h
NO
26,7 km/h
16:14  
---
66 %40 %
17:24
86 %
08:04
32,8 klux78,5 klux
11:44
7:00 Std 
5.
Mrz
-1,9 C-7,1 C
07:05
2,5 C
16:00
1024,3 hPa1016,2 hPa
23:50
1027,5 hPa
10:55
11,7 km/h
NW
39,2 km/h
23:30  
---
2:05 Stunden
69 %40 %
12:30
95 %
23:25
32,1 klux83,0 klux
12:00
6:10 Std 
6.
Mrz
-2,5 C-7,6 C
23:57
-0,3 C
09:50
1020,3 hPa1013,0 hPa
03:10
1030,6 hPa
23:57
5,9 km/h
W
36,5 km/h
00:55  
3,2 l/m
9:21 Stunden
88 %69 %
16:25
98 %
01:30
19,0 klux81,8 klux
12:55
1:24 Std 
7.
Mrz
-3,4 C-7,9 C
23:58
3,4 C
17:02
1032,0 hPa1030,1 hPa
17:02
1034,3 hPa
09:32
3,7 km/h
NO
27,0 km/h
15:47  
---
73 %48 %
17:07
91 %
02:47
41,0 klux76,3 klux
11:52
9:50 Std 
8.
Mrz
-4,8 C-12,8 C
06:13
2,3 C
15:33
1028,2 hPa1024,2 hPa
17:38
1032,1 hPa
02:43
5,3 km/h
SO
27,8 km/h
16:13  
---
69 %50 %
17:28
85 %
08:13
35,6 klux77,7 klux
10:58
8:20 Std 
9.
Mrz
-2,7 C-7,2 C
06:59
2,9 C
16:39
1026,3 hPa1024,9 hPa
01:29
1028,1 hPa
23:40
9,8 km/h
NO
32,4 km/h
13:34  
---
62 %32 %
16:44
86 %
07:19
39,1 klux70,9 klux
12:19
10:00 Std 
10.
Mrz
-0,4 C-5,4 C
01:55
5,6 C
12:40
1023,0 hPa1019,3 hPa
23:56
1028,1 hPa
00:25
13,7 km/h
NO
36,4 km/h
14:45  
---
58 %43 %
12:35
69 %
02:00
35,0 klux75,3 klux
12:25
7:20 Std 
11.
Mrz
-0,3 C-4,1 C
07:01
6,1 C
15:56
1018,5 hPa1016,3 hPa
15:56
1020,4 hPa
00:06
6,9 km/h
NO
21,8 km/h
10:21  
---
64 %41 %
15:56
78 %
06:21
36,9 klux72,6 klux
12:36
9:15 Std 
12.
Mrz
0,4 C-5,0 C
01:02
4,7 C
14:12
1020,1 hPa1018,4 hPa
06:22
1022,1 hPa
21:32
6,9 km/h
W
23,0 km/h
22:53  
---
82 %73 %
18:28
89 %
08:47
18,3 klux50,7 klux
14:07
10 Min 
13.
Mrz
2,5 C1,2 C
00:08
4,7 C
11:38
1024,2 hPa1022,1 hPa
02:38
1026,1 hPa
23:39
16,7 km/h
W
34,5 km/h
22:13  
---
1:20 Stunden
86 %74 %
11:43
94 %
23:54
10,8 klux85,2 klux
11:33
25 Min 
14.
Mrz
3,3 C1,8 C
03:34
5,3 C
15:29
1023,1 hPa1020,6 hPa
16:54
1026,2 hPa
00:29
19,7 km/h
W
40,4 km/h
16:54  
0,3 l/m
4:10 Stunden
87 %74 %
12:04
96 %
20:14
9,1 klux53,0 klux
15:29
10 Min 
15.
Mrz
3,8 C1,2 C
05:55
7,1 C
16:40
1022,9 hPa1020,3 hPa
16:40
1025,2 hPa
08:15
20,0 km/h
W
36,4 km/h
23:41  
1,8 l/m
7:01 Stunden
89 %72 %
16:45
96 %
19:55
10,9 klux96,0 klux
13:40
20 Min 
16.
Mrz
4,3 C0,6 C
23:52
6,7 C
15:01
1025,2 hPa1020,8 hPa
00:21
1029,5 hPa
23:52
13,0 km/h
W
32,0 km/h
00:16  
0,2 l/m
4:15 Stunden
91 %77 %
15:06
98 %
04:26
14,1 klux86,1 klux
11:46
25 Min 
17.
Mrz
5,3 C-0,6 C
01:12
12,7 C
15:42
1027,0 hPa1024,8 hPa
15:42
1029,6 hPa
01:12
7,8 km/h
W
31,6 km/h
12:27  
---
75 %43 %
15:02
97 %
04:47
31,2 klux75,0 klux
12:12
5:45 Std 
18.
Mrz
8,6 C0,0 C
06:58
16,6 C
15:28
1023,3 hPa1019,1 hPa
22:49
1026,5 hPa
06:58
5,4 km/h
W-SW
26,7 km/h
12:33  
---
62 %35 %
14:33
89 %
07:28
37,2 klux73,6 klux
12:38
8:25 Std 
19.
Mrz
12,9 C7,6 C
00:24
18,2 C
14:54
1018,2 hPa1014,4 hPa
23:59
1020,9 hPa
08:49
14,0 km/h
W-SW
35,0 km/h
15:54  
---
54 %45 %
16:14
61 %
13:14
30,7 klux87,7 klux
11:04
5:45 Std 
20.
Mrz
12,3 C9,8 C
05:24
15,9 C
13:34
1012,3 hPa1011,2 hPa
16:04
1014,4 hPa
00:04
18,1 km/h
W-SW
41,4 km/h
13:39  
5,3 l/m
7:10 Stunden
83 %56 %
01:09
95 %
07:49
13,6 klux88,7 klux
13:29
20 Min 
21.
Mrz
10,0 C7,3 C
21:31
13,2 C
10:16
1014,4 hPa1008,5 hPa
04:56
1022,4 hPa
21:46
17,3 km/h
W-SW
47,1 km/h
10:21  
19,5 l/m
11:35 Stunden
96 %83 %
10:16
99 %
18:46
13,9 klux79,0 klux
10:16
45 Min 
22.
Mrz
7,8 C2,8 C
23:58
11,9 C
17:37
1022,3 hPa1020,8 hPa
17:37
1023,5 hPa
06:02
1,0 km/h
SO
7,7 km/h
20:27  
1,1 l/m
3:10 Stunden
94 %81 %
16:17
99 %
00:02
14,7 klux66,0 klux
14:32
30 Min 
23.
Mrz
6,6 C0,0 C
05:58
14,4 C
13:13
1020,8 hPa1018,6 hPa
22:39
1023,1 hPa
08:13
2,8 km/h
SO
16,1 km/h
13:38  
---
15 Minuten
84 %58 %
13:18
99 %
07:28
32,5 klux88,6 klux
13:08
5:20 Std 
24.
Mrz
9,8 C1,6 C
06:38
18,4 C
16:04
1014,0 hPa1010,7 hPa
16:04
1018,7 hPa
00:14
7,4 km/h
O-SO
24,6 km/h
13:09  
---
5 Minuten
75 %45 %
16:49
98 %
08:54
36,8 klux76,8 klux
12:29
8:10 Std 
25.
Mrz
11,5 C3,9 C
05:50
20,4 C
15:45
1008,7 hPa1006,3 hPa
15:45
1012,2 hPa
01:30
4,9 km/h
SO
23,4 km/h
16:15  
---
71 %41 %
15:40
94 %
07:55
29,2 klux93,2 klux
11:40
4:40 Std 
26.
Mrz
9,6 C5,8 C
14:36
16,5 C
11:56
1007,3 hPa1002,7 hPa
12:26
1010,1 hPa
20:06
12,1 km/h
W-SW
70,8 km/h
13:36  
5,0 l/m
3:00 Stunden
82 %60 %
11:56
98 %
15:36
16,4 klux81,3 klux
10:06
2:26 Std 
27.
Mrz
7,3 C3,9 C
23:13
11,0 C
10:32
1007,9 hPa1006,4 hPa
12:32
1010,4 hPa
23:13
14,1 km/h
W-SW
32,9 km/h
10:37  
---
56 Minuten
82 %64 %
12:42
93 %
00:47
24,6 klux93,6 klux
10:32
3:30 Std 
28.
Mrz
7,9 C4,7 C
00:03
11,0 C
17:08
1010,8 hPa1008,8 hPa
23:39
1012,9 hPa
10:48
18,4 km/h
W-SW
39,4 km/h
15:28  
0,5 l/m
2:50 Stunden
82 %63 %
12:33
92 %
07:08
18,6 klux63,3 klux
16:23
1:01 Std 
29.
Mrz
9,8 C7,6 C
23:50
12,4 C
13:09
1006,1 hPa1003,6 hPa
22:55
1009,9 hPa
00:04
11,9 km/h
W-SW
36,4 km/h
08:49  
8,4 l/m
9:20 Stunden
92 %80 %
13:29
97 %
07:59
15,1 klux53,8 klux
16:14
20 Min 
30.
Mrz
11,2 C7,5 C
00:25
17,2 C
15:00
997,0 hPa993,2 hPa
15:00
1003,7 hPa
00:00
16,4 km/h
W-SW
38,9 km/h
11:15  
4,0 l/m
2:55 Stunden
76 %45 %
14:55
96 %
00:05
29,5 klux92,9 klux
11:40
4:00 Std 
31.
Mrz
6,9 C3,7 C
04:16
12,2 C
17:51
1002,3 hPa998,5 hPa
00:01
1005,2 hPa
23:52
23,5 km/h
W-SW
61,4 km/h
19:36  
---
45 Minuten
70 %40 %
17:56
86 %
00:01
28,8 klux106,0 klux
12:26
3:55 Std 



Mrz
2010

Temperatur

  

Luftdruck

  

Wind

  

Regen

  

Luftfeuchte

  

Helligkeit

Sonnen-
schein

Min

Max

Min

Max

Max

Max

Min

Max

Max

Max

4,6 C

-12,8 C

06:13 Uhr
08.03.2010

20,4 C

15:45 Uhr
25.03.2010

1017,9 hPa

993,2 hPa

15:00 Uhr
30.03.2010

1034,3 hPa

09:32 Uhr
07.03.2010

11,1 km/h

W-SW

70,8 km/h

13:36 Uhr
26.03.2010

19,5 l/m

11:35 Stunden
21.03.2010

77 %

32 %

16:44 Uhr
09.03.2010

99 %

18:46 Uhr
21.03.2010

26 klux

106,0 klux

12:26 Uhr
31.03.2010

10:00 Std

am
09.03.2010

Gesamt

Gesamt

49,6 l/m

19 Tage
72:48 h

132:06 Std


Wetter-Diagramme Mrz 2010     Heinzenberg / Taunus   
TemperaturLuftfeuchte
SolarstrahlungLuftdruck
HelligkeitSonnenschein
RegenmengeRegendauer
Wind-GeschwindigkeitWind-Richtung